Wetbulb
50.79 50.90 51.29 51.82 52.11 52.46 53.04 53.28 53.74 54.14 54.60 54.93 55.59 55.75 56.18 56.29 51.86 43.75 41.44 48.82 52.90 58.91 54.99 44.80 44.80 43.82 44.07 42.16 42.07 39.96 32.30 30.20 32.43 34.15 36.18 39.07 38.26 39.04 39.73 39.40 40.08 40.63 39.93 40.21 41.02
50.35 50.44 50.59 51.03 51.67 52.14 52.65 52.91 53.38 53.91 54.78 54.52 54.79 55.09 55.65 55.83 42.85 40.45 50.16 55.90 56.82 57.37 45.01 43.29 42.10 42.41 39.26 39.29 39.33 35.90 31.66 33.57 36.50 36.81 36.86 37.34 37.06 36.49 36.96 37.08 37.11 38.92 39.69 40.06 39.67
49.59 49.68 50.00 50.51 51.24 51.84 52.11 52.46 53.07 53.54 54.40 54.01 54.48 55.30 55.97 52.13 38.81 39.23 53.18 55.34 56.20 52.02 45.33 44.04 42.56 40.89 37.16 37.30 36.21 36.35 33.86 37.35 37.62 38.16 38.39 36.23 35.70 36.91 34.52 33.98 36.09 35.49 36.47 37.05 37.19
49.03 48.77 49.28 49.90 50.78 51.61 51.75 52.10 52.80 53.17 54.13 54.20 55.07 56.15 55.66 42.16 31.70 41.74 52.94 53.84 54.25 47.21 44.12 42.48 40.57 37.11 34.24 33.65 36.12 34.11 35.73 36.70 37.71 36.93 36.71 35.14 36.95 34.32 34.51 35.03 35.98 35.77 35.95 35.59 34.42
48.51 48.20 48.52 49.43 50.38 51.23 51.43 52.05 52.55 52.75 53.96 54.42 55.90 55.54 43.84 36.63 36.25 44.73 50.54 48.85 45.07 44.17 41.45 40.53 38.41 36.11 32.93 33.77 34.56 34.12 34.13 34.59 34.61 35.77 34.99 35.97 33.73 33.86 33.98 35.48 36.36 35.90 35.07 33.46 33.20
48.68 47.98 48.32 49.10 50.12 51.03 51.08 51.97 52.32 52.95 53.82 54.88 56.12 53.09 37.80 33.00 43.26 43.56 43.68 44.76 43.13 42.26 40.35 40.54 38.44 38.05 35.23 33.48 32.62 32.98 32.85 32.40 33.70 34.29 34.78 34.01 32.93 34.22 34.73 36.00 34.57 34.45 32.93 32.50 32.26
48.93 47.82 48.00 48.86 49.79 50.52 50.96 51.85 52.30 52.83 53.88 55.21 55.24 42.67 37.66 35.84 42.16 42.58 43.80 42.18 42.50 41.77 39.36 40.04 40.08 37.90 36.43 32.63 34.85 32.60 31.13 31.44 31.71 32.71 33.51 33.43 31.49 30.69 32.08 32.96 31.32 31.48 31.68 31.98 31.64
49.27 48.01 47.65 48.29 49.37 50.10 50.81 51.79 52.21 53.23 54.15 55.12 52.01 39.22 33.58 42.55 41.87 42.56 43.58 42.07 43.30 42.79 41.02 40.57 40.69 37.34 35.38 34.60 32.22 29.54 28.70 26.92 31.11 32.12 32.91 31.93 27.44 30.49 31.10 31.01 29.46 29.99 30.06 30.78 30.86
49.35 48.01 47.47 48.15 49.19 49.88 50.54 51.40 52.11 53.45 53.73 52.78 40.17 36.89 32.15 45.59 39.63 41.21 42.15 40.37 41.04 41.39 40.86 41.69 38.21 33.36 32.61 28.79 26.99 26.95 24.25 25.56 28.22 31.01 30.57 30.21 27.08 29.89 31.08 30.28 28.56 28.60 29.08 30.09 29.91
49.49 48.19 47.34 47.76 48.95 49.63 50.24 50.53 51.53 47.41 45.84 43.95 41.81 34.37 37.38 34.48 39.05 40.75 41.51 41.88 39.07 38.10 37.33 36.00 32.35 29.45 27.88 26.57 24.53 25.45 23.93 25.58 23.58 28.84 29.21 26.80 26.51 28.86 30.04 29.30 27.94 28.27 28.18 28.53 29.03
49.61 48.45 47.61 47.41 48.53 48.74 44.93 42.11 37.47 36.74 39.19 34.42 34.60 34.71 35.95 39.24 40.50 39.59 40.99 39.29 38.02 35.50 29.39 31.94 28.35 25.71 26.64 28.00 28.17 26.84 25.45 24.13 24.50 29.16 27.81 24.84 25.59 27.66 29.77 28.55 27.71 27.39 27.30 27.69 28.77
49.84 48.94 47.93 47.18 47.53 47.80 40.44 36.80 35.77 37.93 33.43 38.71 38.24 38.55 39.95 39.99 33.64 37.55 40.91 33.98 33.48 28.57 29.42 29.38 26.50 29.78 31.07 29.82 28.60 27.19 25.18 24.11 27.43 28.70 27.85 25.47 24.23 27.35 28.85 28.20 27.84 27.47 27.41 27.63 28.27
49.91 49.30 48.12 47.32 46.41 41.52 37.66 38.18 40.96 38.90 32.63 34.69 37.93 37.27 37.15 38.73 33.95 34.65 37.79 33.59 30.52 27.92 26.85 26.95 29.08 32.15 29.82 27.84 27.93 26.63 25.23 24.79 25.46 27.32 26.51 25.00 23.99 25.45 28.25 28.58 27.92 27.23 27.72 27.93 27.35
50.10 49.52 48.15 47.21 39.59 37.27 35.66 39.80 40.72 38.24 28.95 29.37 32.63 35.98 38.24 37.30 32.28 38.60 38.14 33.97 31.09 27.01 27.70 28.12 30.32 29.21 28.83 27.85 27.94 25.41 28.65 28.00 26.73 23.40 19.18 24.03 15.42 22.61 24.92 24.59 24.98 24.83 24.75 25.71 26.40
50.61 49.64 48.08 44.23 34.80 34.42 36.66 40.35 39.88 38.19 20.32 31.94 32.30 40.58 37.63 32.78 32.49 34.14 37.93 34.89 28.72 28.17 27.26 26.20 27.18 27.94 27.60 28.54 29.32 26.86 29.20 27.41 26.61 23.03 20.97 21.61 16.44 20.25 23.32 22.40 22.88 24.05 24.64 25.13 26.04
51.10 49.54 47.32 39.41 35.76 36.72 39.58 38.81 36.60 29.80 22.48 27.69 32.13 31.71 31.34 32.15 32.23 34.24 34.10 36.39 32.66 29.72 29.20 26.99 29.81 28.42 28.58 29.56 29.50 28.28 24.77 24.17 22.09 20.83 8.60 18.56 16.90 18.58 21.23 23.15 22.69 23.89 24.13 24.74 25.10
50.93 49.14 42.55 38.29 33.67 38.50 37.44 33.86 26.25 22.40 29.95 25.82 26.41 29.76 28.44 28.14 29.46 29.30 28.40 27.58 25.42 21.37 22.40 25.59 25.91 27.82 29.80 27.41 28.63 26.06 21.56 8.49 9.17 6.47 8.77 16.68 16.45 19.10 21.82 22.88 23.88 22.94 23.88 23.99 24.54
50.62 48.41 41.06 37.72 38.03 37.86 33.47 27.86 16.93 22.25 24.69 28.75 29.07 28.41 26.07 28.59 28.09 28.56 26.98 24.14 26.96 24.55 22.22 19.35 18.30 25.87 28.23 25.98 24.89 24.75 21.71 12.79 7.04 6.37 9.88 18.77 12.60 19.64 22.72 23.79 24.20 24.41 24.17 24.24 23.40
47.41 34.91 33.84 36.90 39.50 35.37 30.21 14.87 22.70 24.65 28.51 27.85 27.97 22.93 23.87 27.45 26.58 26.64 24.41 24.13 26.84 27.20 24.40 19.25 19.78 25.43 27.47 27.31 26.01 24.56 17.48 21.33 7.00 0.71 6.77 13.61 18.83 23.07 22.55 21.44 21.69 21.78 22.59 21.24 22.04
35.98 33.49 32.56 38.54 38.62 32.29 23.55 23.82 23.11 29.97 30.60 29.86 27.90 24.52 19.03 20.85 23.95 24.47 24.50 26.84 27.66 28.83 26.48 23.83 17.87 24.59 25.83 26.34 26.84 25.10 25.32 16.53 11.52 3.78 1.54 9.14 12.07 17.42 18.98 19.77 21.12 20.22 19.88 20.43 22.26
34.97 29.63 33.05 38.73 35.14 26.76 18.25 19.40 25.92 30.69 32.53 29.87 27.25 19.59 24.19 22.45 24.94 23.24 25.95 27.20 28.77 27.89 28.17 24.09 22.61 20.11 23.79 21.74 21.51 21.11 17.61 17.95 17.43 13.14 5.22 2.45 12.11 20.02 22.51 22.03 20.62 20.00 20.88 20.24 21.74
32.84 23.33 33.49 36.13 23.06 11.76 14.74 23.64 30.64 28.69 31.03 29.63 28.98 26.01 24.84 25.06 24.20 23.82 25.14 25.85 30.08 29.28 25.92 26.55 21.23 13.85 18.04 20.02 20.25 21.85 21.42 18.76 10.63 8.37 9.16 8.60 12.71 23.34 20.92 21.09 20.57 20.91 22.05 21.63 23.42
30.48 26.99 34.50 36.34 17.41 12.57 17.20 24.84 27.60 27.97 28.06 28.43 28.34 28.63 27.05 24.79 24.60 24.53 25.74 26.27 29.17 28.77 26.51 25.97 15.80 6.19 13.88 17.45 19.00 19.32 21.46 18.73 10.00 10.10 8.88 6.50 13.05 21.19 21.03 19.69 20.46 19.49 20.75 22.30 23.02
31.71 22.65 26.64 32.61 25.32 21.33 17.64 21.51 24.36 27.64 27.97 28.97 28.28 27.89 25.43 22.41 23.97 21.23 24.14 25.53 27.80 28.45 32.58 28.63 14.56 14.18 16.03 17.28 16.92 16.88 19.08 18.03 13.61 5.82 6.29 11.67 8.72 16.73 18.72 18.06 18.36 19.35 20.67 20.41 21.27
34.31 26.13 27.12 23.10 24.25 22.09 25.94 24.83 25.93 23.72 27.51 28.72 25.39 27.59 26.43 21.57 21.90 19.54 21.70 23.32 26.72 30.39 25.34 24.39 13.75 10.00 10.68 13.94 14.90 17.16 17.63 17.59 13.91 13.97 13.81 13.34 14.40 15.08 18.60 17.19 14.49 18.85 20.56 20.74 20.33
31.96 23.91 21.12 16.23 28.30 25.29 27.00 21.40 25.92 24.95 26.70 25.26 24.26 27.78 28.16 25.46 28.12 22.09 23.41 23.56 25.50 23.75 24.01 19.11 14.03 14.28 10.72 14.08 13.30 14.13 17.63 19.00 19.80 13.23 11.70 10.98 14.05 20.05 18.77 16.72 16.57 18.79 20.09 19.74 18.17
33.35 34.28 35.71 28.24 25.26 24.63 25.50 24.25 27.77 29.09 27.30 29.16 29.39 27.90 27.05 28.71 27.25 28.05 27.18 27.30 28.24 25.28 22.65 17.91 11.72 10.55 6.54 10.60 9.10 8.30 15.67 18.49 16.54 14.64 18.46 13.08 21.78 16.69 13.54 16.83 14.34 15.15 15.64 15.82 14.33
MSLP
1021.56 1021.62 1021.38 1021.33 1021.21 1021.48 1021.46 1021.20 1021.11 1020.93 1020.91 1020.36 1020.05 1019.41 1019.53 1019.43 1019.06 1019.14 1020.14 1020.67 1019.92 1019.09 1018.52 1018.13 1018.15 1017.96 1017.94 1019.39 1020.06 1020.68 1022.69 1024.73 1024.81 1024.75 1024.99 1024.91 1024.99 1025.25 1025.32 1025.34 1025.53 1026.06 1027.09 1028.39 1028.33
1021.70 1021.64 1021.49 1021.43 1021.25 1021.38 1021.37 1021.29 1021.12 1020.93 1020.92 1020.52 1019.98 1019.46 1019.64 1019.83 1019.75 1020.19 1020.66 1020.12 1019.63 1019.08 1018.75 1018.87 1018.93 1018.93 1019.65 1020.59 1021.21 1021.84 1023.92 1024.86 1025.02 1024.94 1025.09 1025.22 1025.34 1025.77 1025.87 1026.24 1026.83 1027.20 1028.13 1028.58 1028.41
1021.72 1021.76 1021.68 1021.47 1021.37 1021.44 1021.17 1021.32 1021.08 1020.76 1020.86 1020.56 1020.09 1019.72 1019.61 1019.83 1020.04 1021.02 1020.51 1019.83 1019.53 1019.18 1019.08 1019.12 1019.32 1019.63 1020.95 1021.49 1022.59 1023.12 1024.31 1024.96 1025.20 1025.00 1024.94 1025.37 1025.78 1026.12 1026.66 1027.37 1028.07 1028.71 1029.21 1029.15 1029.00
1021.59 1021.62 1021.86 1021.56 1021.58 1021.43 1021.13 1021.10 1020.97 1020.73 1020.74 1020.41 1020.09 1019.86 1019.59 1019.96 1021.45 1021.42 1020.79 1019.95 1019.54 1019.39 1019.15 1019.42 1019.90 1020.84 1022.06 1022.79 1023.10 1024.15 1024.90 1024.87 1025.41 1025.24 1025.23 1025.67 1026.11 1026.91 1027.50 1028.62 1028.92 1029.53 1029.92 1030.02 1029.90
1021.56 1021.60 1021.79 1021.74 1021.71 1021.30 1021.11 1021.14 1020.96 1020.55 1020.51 1020.20 1019.95 1019.71 1019.72 1020.93 1022.08 1021.43 1020.97 1020.31 1019.65 1019.75 1020.21 1020.23 1020.69 1021.77 1022.76 1023.34 1023.64 1024.47 1025.29 1025.40 1025.74 1025.65 1025.83 1026.00 1026.62 1027.24 1028.39 1029.03 1029.46 1029.97 1030.22 1030.55 1030.72
1021.39 1021.63 1021.87 1021.65 1021.57 1021.30 1021.15 1021.22 1020.92 1020.67 1020.34 1019.93 1019.79 1019.53 1019.98 1021.61 1022.05 1021.80 1021.24 1020.62 1020.65 1020.53 1020.90 1020.88 1021.43 1021.67 1023.04 1023.96 1024.24 1025.12 1025.41 1025.90 1025.99 1026.14 1026.31 1026.44 1027.11 1027.52 1028.95 1029.44 1029.95 1030.22 1030.77 1030.99 1030.92
1021.13 1021.43 1021.85 1021.68 1021.32 1021.18 1021.28 1021.25 1020.90 1020.58 1020.31 1019.89 1019.72 1019.69 1021.03 1022.29 1022.10 1021.92 1021.26 1021.17 1021.27 1021.07 1021.30 1021.65 1021.70 1022.04 1023.35 1024.64 1025.03 1025.28 1025.77 1026.12 1026.55 1026.58 1026.66 1026.72 1027.98 1029.60 1030.05 1029.79 1030.47 1031.01 1031.24 1031.27 1031.31
1020.89 1021.33 1021.45 1021.35 1021.18 1021.06 1021.18 1021.16 1020.80 1020.56 1020.23 1019.96 1019.77 1020.10 1021.79 1021.91 1021.91 1021.81 1021.53 1021.31 1021.33 1021.33 1021.49 1021.91 1021.86 1022.80 1023.96 1025.09 1025.69 1025.87 1026.31 1026.74 1027.05 1026.98 1026.92 1027.24 1029.39 1030.37 1030.45 1030.25 1031.18 1031.55 1031.61 1031.59 1031.54
1020.84 1021.15 1021.18 1021.07 1021.10 1021.05 1021.02 1020.79 1020.65 1020.58 1020.32 1019.93 1019.93 1020.20 1022.21 1021.95 1022.20 1022.15 1021.91 1021.88 1021.76 1021.79 1021.90 1021.98 1022.42 1024.30 1024.99 1025.65 1026.61 1027.00 1027.22 1027.27 1027.51 1027.77 1027.94 1027.93 1030.07 1030.97 1031.02 1030.90 1031.65 1032.00 1032.10 1031.98 1031.82
1020.65 1020.68 1020.92 1021.08 1021.15 1021.01 1020.69 1020.60 1020.49 1020.36 1020.50 1020.28 1020.46 1021.06 1022.36 1022.67 1022.53 1022.39 1022.20 1021.90 1022.07 1022.21 1022.42 1022.92 1024.02 1025.21 1026.24 1026.18 1026.71 1027.10 1027.81 1027.84 1028.16 1028.68 1028.48 1029.35 1030.74 1031.35 1031.52 1031.48 1032.01 1032.21 1032.29 1032.19 1032.05
1020.27 1020.52 1020.63 1020.92 1021.07 1020.78 1020.48 1020.62 1021.32 1021.39 1021.69 1022.47 1022.53 1022.46 1022.77 1022.64 1022.55 1022.66 1022.68 1022.36 1022.30 1023.08 1024.10 1024.55 1025.26 1026.51 1027.05 1026.74 1026.51 1026.80 1027.54 1028.14 1028.64 1029.10 1029.15 1030.08 1030.91 1031.51 1031.90 1032.22 1032.40 1032.48 1032.48 1032.49 1032.35
1019.74 1020.12 1020.48 1020.70 1020.76 1020.79 1020.78 1020.79 1021.02 1021.70 1022.78 1023.05 1022.90 1022.88 1023.05 1023.00 1022.94 1023.12 1022.72 1023.13 1023.14 1024.36 1024.90 1025.37 1026.33 1026.88 1027.04 1026.95 1026.98 1027.34 1028.03 1028.75 1029.04 1029.36 1029.53 1030.50 1031.20 1031.41 1031.79 1032.51 1032.84 1032.91 1032.87 1032.95 1032.61
1019.48 1019.95 1019.96 1020.56 1020.32 1020.56 1020.81 1021.10 1021.28 1021.03 1022.26 1023.63 1023.52 1023.32 1023.46 1023.39 1023.69 1023.75 1023.44 1023.64 1024.13 1024.93 1025.48 1025.85 1026.82 1026.81 1027.05 1027.48 1027.66 1028.25 1028.26 1028.86 1029.24 1029.89 1030.32 1030.60 1031.66 1031.71 1031.82 1032.31 1032.80 1033.09 1033.41 1033.26 1033.03
1018.95 1019.70 1019.89 1020.30 1020.85 1020.73 1020.97 1021.09 1021.23 1021.14 1022.22 1023.77 1023.69 1023.66 1023.53 1023.57 1024.15 1024.05 1023.98 1024.06 1024.77 1025.88 1026.24 1026.82 1027.09 1027.06 1027.35 1027.76 1028.06 1028.73 1028.87 1029.24 1030.01 1030.81 1031.31 1031.53 1032.22 1032.23 1032.24 1032.60 1033.01 1033.64 1033.73 1033.72 1033.31
1018.81 1019.26 1019.66 1020.03 1020.49 1020.73 1020.79 1021.00 1021.00 1021.10 1022.92 1023.93 1023.76 1023.62 1023.72 1024.05 1024.61 1024.43 1024.20 1023.99 1025.12 1026.02 1026.55 1027.46 1027.23 1027.27 1027.63 1027.89 1028.26 1029.30 1029.69 1030.25 1031.08 1031.84 1032.30 1032.33 1032.61 1031.78 1032.42 1032.98 1033.47 1033.99 1034.18 1034.15 1033.72
1018.79 1018.86 1019.67 1020.28 1020.69 1020.47 1020.53 1020.83 1021.26 1022.31 1023.49 1023.92 1023.97 1023.92 1024.20 1024.60 1024.70 1024.68 1024.54 1024.47 1025.34 1026.03 1026.87 1027.60 1027.52 1027.50 1027.75 1028.28 1028.59 1029.57 1030.52 1031.46 1032.54 1033.22 1033.89 1033.56 1033.53 1032.33 1032.56 1032.70 1033.47 1034.02 1034.30 1034.42 1034.17
1018.58 1018.70 1019.74 1019.81 1020.69 1020.60 1020.58 1021.32 1022.84 1023.21 1023.87 1024.39 1024.46 1024.57 1024.62 1025.19 1025.27 1024.99 1025.05 1025.38 1025.74 1026.65 1027.69 1028.06 1028.13 1028.05 1028.17 1028.79 1029.38 1030.02 1031.06 1032.81 1034.49 1035.43 1035.46 1034.67 1034.25 1032.28 1032.70 1032.81 1033.18 1033.97 1034.48 1034.66 1034.42
1018.56 1018.70 1019.44 1019.90 1020.17 1020.62 1020.67 1022.34 1023.40 1022.71 1023.45 1024.05 1024.42 1025.20 1025.31 1025.45 1025.71 1025.62 1025.72 1025.90 1025.91 1026.01 1027.21 1027.76 1028.60 1028.49 1028.45 1028.96 1029.34 1030.34 1031.19 1032.74 1034.87 1036.66 1036.36 1035.25 1034.05 1032.68 1032.83 1033.00 1033.39 1033.97 1034.52 1034.76 1034.73
1018.19 1019.55 1020.06 1020.11 1020.37 1020.79 1021.13 1023.09 1021.99 1022.11 1022.06 1023.58 1024.78 1025.32 1025.81 1025.74 1025.70 1025.91 1026.08 1025.88 1025.47 1025.72 1026.10 1027.09 1028.42 1028.76 1028.86 1029.16 1029.96 1030.75 1031.73 1032.97 1035.18 1037.96 1037.32 1035.49 1033.76 1033.10 1033.34 1033.47 1033.64 1034.13 1034.70 1035.02 1035.02
1018.21 1019.71 1020.39 1020.12 1020.51 1021.05 1022.11 1022.11 1021.38 1020.92 1021.33 1022.34 1023.29 1023.96 1025.52 1026.08 1026.13 1026.16 1025.97 1025.09 1025.24 1025.41 1025.89 1026.71 1028.42 1029.38 1029.62 1029.71 1030.29 1030.64 1031.78 1033.17 1034.85 1036.97 1037.56 1036.10 1034.43 1032.49 1033.02 1033.00 1033.46 1034.04 1034.55 1035.02 1034.54
1017.69 1019.17 1020.43 1020.47 1020.69 1021.92 1022.59 1021.94 1020.91 1020.49 1020.41 1021.10 1022.38 1023.56 1024.65 1025.24 1025.91 1025.95 1025.26 1025.18 1025.23 1025.96 1026.17 1026.96 1027.96 1030.46 1030.26 1030.20 1030.49 1031.45 1031.89 1033.34 1034.52 1035.93 1036.89 1036.16 1033.27 1030.81 1030.95 1031.97 1033.00 1033.54 1034.28 1034.59 1035.02
1016.80 1019.34 1020.28 1020.62 1021.54 1022.11 1022.11 1021.24 1020.02 1020.35 1020.53 1020.54 1021.54 1022.51 1023.50 1024.60 1025.58 1025.80 1025.23 1025.09 1025.05 1025.56 1026.81 1027.24 1028.87 1030.84 1030.85 1030.77 1030.72 1031.11 1031.71 1032.56 1034.49 1036.26 1036.70 1035.97 1032.24 1030.45 1030.93 1031.87 1032.94 1033.58 1034.06 1034.47 1035.05
1015.94 1019.40 1020.21 1020.47 1020.66 1022.22 1021.67 1020.85 1020.27 1020.53 1020.16 1020.46 1021.39 1021.92 1023.06 1024.09 1025.06 1025.19 1025.37 1025.70 1025.63 1025.69 1025.90 1027.17 1029.19 1031.27 1031.74 1031.98 1031.59 1031.47 1031.70 1032.60 1034.02 1034.89 1035.97 1035.65 1032.28 1031.35 1031.89 1032.59 1033.24 1033.74 1034.01 1034.51 1035.09
1013.70 1018.30 1020.19 1020.24 1019.62 1019.36 1020.62 1020.16 1019.92 1019.73 1019.85 1019.49 1020.86 1021.82 1023.04 1024.17 1024.90 1025.58 1026.10 1026.50 1026.40 1026.41 1026.63 1027.12 1029.35 1030.30 1030.64 1030.28 1030.30 1031.19 1031.16 1032.05 1032.87 1034.64 1035.05 1033.45 1031.85 1032.09 1032.24 1032.66 1033.39 1033.92 1034.31 1034.74 1035.23
1009.96 1013.10 1014.07 1017.23 1018.00 1018.21 1018.11 1017.84 1018.25 1018.89 1019.44 1019.32 1020.60 1020.58 1021.36 1023.89 1025.10 1025.68 1026.36 1027.12 1027.37 1027.17 1027.43 1028.15 1029.91 1031.19 1031.38 1031.08 1030.67 1030.29 1030.40 1031.05 1031.82 1031.89 1032.74 1031.13 1031.42 1030.69 1030.99 1031.91 1033.05 1033.70 1034.49 1034.85 1035.39
1007.23 1010.59 1013.10 1013.52 1014.91 1016.63 1016.60 1015.84 1016.37 1017.48 1017.45 1018.08 1018.76 1019.76 1020.75 1021.60 1022.18 1024.55 1025.65 1026.68 1026.74 1028.32 1028.25 1029.20 1030.13 1031.13 1031.94 1031.67 1031.38 1030.61 1030.06 1030.22 1030.64 1031.17 1031.09 1030.87 1030.32 1029.72 1030.69 1031.82 1033.13 1033.66 1034.31 1034.89 1035.67
1005.70 1008.11 1008.10 1012.04 1013.48 1014.42 1012.59 1013.74 1013.41 1015.17 1016.94 1016.81 1017.54 1019.57 1021.24 1021.86 1022.19 1022.84 1024.54 1025.07 1025.90 1027.39 1028.98 1029.89 1030.62 1031.91 1032.19 1032.00 1031.38 1030.30 1028.43 1028.19 1028.68 1028.66 1028.78 1030.20 1028.06 1029.82 1031.39 1032.02 1032.64 1033.61 1034.32 1035.20 1035.95
Wind_Speed
5 4 5 6 7 7 8 8 8 9 9 8 8 10 11 11 5 7 10 6 10 17 12 6 5 7 5 6 6 3 7 3 3 4 4 3 3 5 3 3 5 4 5 4 7
3 4 4 5 6 6 8 8 8 9 10 9 7 7 8 7 4 11 6 16 16 14 6 9 7 8 6 6 5 7 6 3 1 2 3 3 5 3 4 6 6 4 7 9 10
3 3 4 5 5 6 7 7 8 8 9 8 8 8 9 4 5 4 15 18 17 10 1 2 2 5 7 5 6 4 6 5 3 3 2 3 4 3 2 5 3 5 6 10 14
3 3 3 4 5 6 6 7 7 6 7 8 9 11 8 1 2 5 18 16 12 7 3 6 7 6 6 6 3 9 5 4 2 3 2 3 3 5 5 3 3 8 6 9 16
3 2 2 4 5 6 7 7 6 4 5 7 10 9 3 8 2 6 17 13 4 4 7 4 7 4 5 5 4 8 2 6 3 5 5 6 5 5 6 6 7 8 11 12 11
5 1 1 3 5 7 7 7 5 5 5 6 9 5 3 6 5 8 9 7 7 6 6 7 4 4 7 5 6 4 6 4 7 4 5 5 3 4 6 5 9 10 10 9 13
6 2 2 3 5 6 7 6 5 5 6 6 7 4 10 5 3 8 7 4 5 3 5 4 2 5 5 5 3 5 7 4 8 6 3 2 9 8 7 7 10 9 7 7 9
8 4 1 3 4 6 6 6 5 5 6 6 5 5 5 3 3 5 7 4 6 5 5 4 6 8 6 4 7 5 6 4 3 8 2 2 5 8 10 9 10 8 6 8 9
9 5 1 3 5 6 6 6 5 8 6 4 3 7 3 5 4 5 4 3 4 4 6 3 7 5 5 5 5 7 4 3 1 4 4 5 4 7 8 9 8 6 6 6 6
10 6 1 3 5 6 6 2 4 3 5 1 3 5 4 1 3 4 4 3 6 2 5 9 6 5 5 4 5 6 5 3 3 6 6 6 5 4 6 8 6 5 6 6 7
11 7 4 2 4 4 3 4 4 5 10 3 0 5 1 3 2 5 4 3 3 9 4 5 8 5 1 3 4 8 6 5 1 2 4 5 5 4 5 6 7 6 6 6 7
14 11 6 2 2 3 3 5 4 4 7 5 2 4 1 1 2 6 5 3 5 5 1 7 5 3 4 5 6 5 6 3 2 3 1 5 4 3 4 3 3 5 6 7 6
15 12 9 4 2 3 3 6 2 2 7 3 3 3 2 3 2 5 4 2 5 5 3 6 5 4 3 2 5 3 6 4 3 1 3 3 3 2 3 2 6 7 4 4 5
17 13 9 5 3 3 2 5 2 1 7 1 2 3 2 2 5 2 4 3 6 5 4 6 1 4 4 2 2 3 2 5 4 3 2 2 4 5 3 4 8 8 8 7 8
17 15 10 5 6 5 4 5 3 2 4 2 1 2 2 4 1 5 2 4 4 4 2 2 4 4 3 3 0 4 2 4 3 4 2 4 4 4 3 3 5 6 7 7 7
17 16 12 4 2 3 6 5 4 9 7 1 1 2 4 3 2 2 3 6 4 6 7 3 1 2 3 3 3 8 6 6 4 2 4 2 4 4 5 5 3 2 5 6 7
19 17 8 4 4 6 5 5 8 6 4 3 3 3 2 3 2 2 2 3 5 7 2 2 2 1 1 5 2 1 5 4 6 5 5 4 1 7 4 5 5 1 4 6 6
19 16 5 1 4 5 4 8 6 4 6 3 5 3 4 5 1 2 4 3 3 4 5 7 3 5 1 0 4 3 5 7 7 3 4 3 6 4 5 5 3 1 3 5 7
20 2 3 2 4 2 7 4 13 9 10 11 4 5 2 3 5 3 5 5 7 9 6 6 2 0 2 2 2 3 2 4 10 2 4 3 6 2 3 4 3 4 4 5 6
6 4 1 5 3 5 7 8 6 5 9 5 10 4 9 5 5 6 8 4 5 6 1 6 6 0 2 2 4 2 5 4 4 2 4 5 7 7 12 13 6 5 4 4 6
4 5 2 1 4 6 7 9 6 4 5 9 7 6 4 9 8 6 7 2 3 4 3 4 5 1 2 6 8 1 1 5 5 4 6 2 8 6 15 11 8 5 3 3 4
5 3 2 1 4 0 6 9 5 6 2 3 5 5 8 9 7 6 10 3 6 9 7 3 6 4 5 1 0 1 5 6 7 6 1 3 10 2 7 8 6 6 2 4 4
8 4 1 1 8 3 3 3 6 6 7 8 6 2 3 8 4 6 5 2 3 6 9 8 1 4 7 4 2 5 6 4 5 4 7 7 9 3 5 5 5 6 4 3 4
8 7 0 3 1 10 8 6 7 2 5 6 7 5 5 3 5 6 4 2 1 2 5 8 3 8 10 5 5 7 7 6 7 5 6 9 4 7 11 10 7 6 5 5 4
5 7 10 14 13 6 13 16 16 10 3 4 3 8 12 6 3 4 3 3 3 2 2 5 6 4 2 2 1 3 7 14 10 9 10 6 12 9 17 15 9 7 7 8 5
10 9 3 4 17 17 17 14 21 8 15 10 6 13 4 11 11 11 8 4 7 1 5 1 3 4 1 2 3 5 7 12 14 3 9 3 14 7 3 6 7 9 9 8 5
3 3 6 15 12 19 18 17 26 18 4 3 15 11 9 4 6 9 4 8 8 9 8 6 8 4 6 2 3 8 16 18 8 7 10 9 14 8 5 10 11 10 9 8 7
Wind_Direction
77 58 53 40 35 13 6 9 8 7 353 355 360 16 2 6 39 41 46 314 323 322 332 293 2 356 29 60 42 103 65 87 125 138 147 5 71 357 299 52 46 48 70 71 354
88 54 48 36 33 16 10 3 2 2 353 349 358 11 351 332 46 58 352 344 335 339 22 29 9 358 48 31 25 63 79 107 39 104 104 91 79 322 53 30 20 71 62 28 20
92 53 44 36 22 8 14 356 357 6 353 352 352 349 340 321 69 328 337 344 337 339 138 78 7 54 57 33 359 27 118 152 44 83 83 78 56 26 69 38 54 16 34 17 25
126 64 23 28 2 1 7 355 354 2 355 353 350 341 341 319 95 286 335 339 344 351 43 39 32 48 65 62 351 95 61 103 75 12 90 84 117 75 60 18 32 73 71 40 30
146 89 26 7 349 0 1 346 340 356 354 354 347 347 37 49 32 309 333 343 18 27 43 60 59 95 94 101 58 73 106 66 51 92 52 86 72 110 42 56 76 69 52 42 34
156 127 349 8 352 356 353 334 335 339 347 353 351 357 70 71 301 323 330 353 24 39 22 36 86 104 86 63 73 114 80 93 48 51 58 94 77 89 20 27 55 55 49 35 31
168 161 285 336 0 354 340 330 331 329 331 347 4 84 60 156 317 317 6 14 352 31 68 32 44 75 119 91 142 126 83 55 29 341 55 187 41 62 326 18 60 57 49 38 28
175 181 234 329 349 348 332 324 325 323 323 333 19 69 93 268 269 4 345 14 15 30 84 25 75 93 65 108 34 65 55 70 10 7 332 133 111 10 351 74 59 53 38 33 28
182 186 212 343 340 336 325 319 318 315 306 335 57 94 98 332 29 313 30 31 338 29 36 67 67 78 39 87 52 14 135 97 24 58 307 38 92 352 10 69 66 45 29 28 21
184 176 195 325 330 333 330 290 325 6 341 10 61 67 8 353 312 332 331 57 66 19 24 40 51 76 38 65 194 159 120 81 76 334 30 66 83 2 20 64 66 49 31 23 24
181 183 184 278 323 344 58 78 37 6 41 74 241 94 88 299 350 357 352 7 48 50 62 11 68 91 64 6 84 102 100 110 47 4 25 59 97 28 6 35 38 35 30 19 28
182 181 181 213 340 8 76 131 146 145 91 12 66 69 69 318 76 348 2 73 63 91 335 33 95 155 100 59 86 82 115 84 51 359 115 44 92 93 35 32 11 25 23 15 360
184 184 172 196 138 76 116 153 148 145 87 6 12 61 323 23 79 330 12 77 90 66 10 118 147 137 96 84 90 36 129 156 132 25 73 105 96 113 73 77 37 32 5 8 359
181 182 172 172 107 163 146 162 120 259 79 252 337 354 6 102 39 320 2 88 43 132 98 91 41 124 115 122 138 145 129 108 114 107 190 27 224 215 180 56 38 17 12 357 354
182 175 168 172 147 143 147 134 145 53 44 56 88 281 26 98 120 354 334 30 101 113 150 193 136 131 122 168 142 159 87 87 79 88 62 357 75 233 207 90 29 4 0 355 357
177 167 143 95 49 150 134 121 59 51 252 136 54 132 81 24 37 306 40 49 139 84 39 109 59 71 132 84 68 150 79 58 53 71 38 271 110 238 191 168 123 331 343 346 342
172 161 154 130 206 157 119 66 54 133 360 238 166 171 115 143 102 92 121 113 148 105 159 43 1 353 118 96 81 116 85 359 359 11 212 347 11 255 159 142 146 159 335 331 327
164 147 118 86 132 146 84 58 111 231 198 141 116 96 173 160 34 103 122 173 228 123 133 148 288 176 42 184 175 182 156 153 210 205 258 330 242 281 173 149 110 258 286 309 314
133 75 107 159 140 37 84 100 191 202 154 146 82 111 257 206 143 147 200 214 206 183 156 139 132 103 65 75 80 200 91 140 102 56 44 241 291 216 187 202 196 238 255 286 296
118 104 186 144 136 73 77 209 195 163 128 150 170 144 171 205 154 184 182 201 196 187 293 197 101 223 143 115 41 177 144 87 3 114 274 285 271 234 206 214 199 215 244 276 31
92 116 190 69 93 53 171 221 192 200 140 146 185 122 164 171 181 206 185 176 149 133 84 140 100 233 124 202 174 150 60 51 108 128 170 229 257 212 207 179 187 199 216 75 62
134 136 194 101 104 358 156 194 171 157 187 114 116 115 162 159 166 209 205 212 160 152 159 179 122 159 206 217 204 270 193 155 130 225 157 144 268 308 152 149 166 191 173 112 108
124 109 299 219 174 231 298 174 182 143 175 158 155 154 147 161 165 183 176 3 164 164 154 186 235 57 353 359 344 213 193 118 110 88 196 140 260 113 125 158 200 194 164 155 125
125 129 187 214 165 143 140 199 181 239 177 142 131 104 112 96 359 159 130 34 105 102 95 96 99 166 192 173 138 193 178 171 137 132 175 228 246 211 213 208 199 201 181 155 144
152 185 171 183 201 170 186 170 178 171 218 176 125 205 159 126 93 154 120 114 22 105 68 126 198 135 263 298 287 220 181 183 195 179 178 223 211 191 210 205 201 190 178 170 174
146 148 69 133 156 171 193 191 183 192 159 204 182 182 202 156 175 173 138 195 189 93 145 180 196 142 234 1 54 263 233 205 218 229 275 162 269 190 144 119 173 191 180 177 190
127 84 138 156 149 178 198 182 195 161 255 173 177 144 190 167 96 86 38 100 128 147 176 159 135 119 254 0 346 299 212 206 194 200 199 205 236 163 184 192 194 189 188 187 187